Volver al catálogo

STARLINK-31468

ActivoComunicacionesVLEO
NORAD 58998·PAYLOAD·🇺🇸 United States

Lanzado Feb 23, 2024 desde Vandenberg Space Force Base

Loading…

Próximos Pases (próximas 24 horas)

TLE

ActualizadoSource: CelesTrak SupGP

Época: Sep 14, 2026, 21:08 UTC

1 58998C 24036A   26257.88104167 -.00019876  00000+0 -58767-3 0  2576
2 58998  53.1585 278.0367 0001193  87.4189  69.3234 15.34376876    10

Sigue STARLINK-31468 en tiempo real con AllMySat

Download on the App Store